AO-07 1 07530U 74089B 25259.99360602 -.00000029 00000-0 10766-3 0 9996 2 07530 101.9986 265.3297 0011926 293.5292 123.2209 12.53691553326286 UO-11 1 14781U 84021B 25260.15794497 .00001395 00000-0 15152-3 0 9992 2 14781 97.7662 224.6282 0008243 19.6763 340.4771 14.89673918216466 AO-27 1 22825U 93061C 25260.14786660 .00000085 00000-0 49595-4 0 9990 2 22825 98.7272 322.1553 0008521 173.8422 186.2867 14.30829130667952 FO-29 1 24278U 96046B 25260.12245811 -.00000019 00000-0 13887-4 0 9999 2 24278 98.5583 140.8476 0350917 84.6680 279.4387 13.53253666436238 NOAA-15 1 25338U 98030A 25260.23741604 .00000136 00000-0 73416-4 0 9998 2 25338 98.5320 282.9539 0011378 70.0485 290.1920 14.27016877422365 GO-32 1 25397U 98043D 25259.95239115 .00000085 00000-0 56852-4 0 9991 2 25397 98.9821 241.1957 0000395 334.2361 25.8797 14.24338992412430 ISS 1 25544U 98067A 25260.12361477 .00008550 00000-0 15572-3 0 9997 2 25544 51.6329 211.3907 0004353 348.5756 11.5133 15.50345634529426 NO-44 1 26931U 01043C 25260.04970416 .00000167 00000-0 93480-4 0 9997 2 26931 67.0495 230.6473 0007060 275.1421 84.8875 14.31778987251344 SO-50 1 27607U 02058C 25259.42768798 .00001644 00000-0 21806-3 0 9996 2 27607 64.5509 255.3491 0066400 313.2724 46.2852 14.81889063223877 CO-55 1 27844U 03031E 25260.24245610 .00000298 00000-0 14850-3 0 9991 2 27844 98.6792 267.2456 0008434 257.0143 103.0094 14.24068576152829 CO-57 1 27848U 03031J 25259.95656498 .00000252 00000-0 13014-3 0 9992 2 27848 98.6823 266.8933 0008326 278.0833 81.9400 14.23392926152500 RS-22 1 27939U 03042A 25260.30272082 .00001072 00000-0 17679-3 0 9991 2 27939 98.3368 72.2324 0012368 57.3641 64.5351 14.72588733175370 CO-58 1 28895U 05043F 25259.88690491 .00001521 00000-0 25405-3 0 9990 2 28895 98.2638 45.5752 0014239 356.9372 3.1745 14.71345012 61546 CO-65 1 32785U 08021C 25260.21084149 .00005881 00000-0 41387-3 0 9998 2 32785 97.7956 232.2299 0008142 228.4962 131.5566 15.05424375944063 CO-66 1 32791U 08021J 25259.92525880 .00013506 00000-0 60921-3 0 9991 2 32791 97.7370 242.3897 0004499 146.2251 213.9271 15.21134436945585 RS-30 1 32953U 08025A 25260.27638718 .00000000 00000-0 -70810-4 0 9995 2 32953 82.5070 165.1940 0018611 185.0085 175.0811 12.43168103785783 NOAA-19 1 33591U 09005A 25260.23162538 .00000075 00000-0 63989-4 0 9991 2 33591 98.9884 325.4548 0014809 83.3712 276.9145 14.13407306855928 SRMSAT 1 37841U 11058D 25260.13664873 .00000417 00000-0 83020-4 0 9990 2 37841 19.9717 272.0788 0011970 80.2124 340.3760 14.11464788719192 ZACUBE-1 1 39417U 13066B 25260.17674635 .00005773 00000-0 48934-3 0 9997 2 39417 97.7905 216.7639 0045897 79.6670 280.9722 14.97534641639816 Delfi-N3xt 1 39428U 13066N 25260.02378897 .00008801 00000-0 86755-3 0 9992 2 39428 97.8285 176.6070 0084131 33.9298 326.7260 14.89601332633875 GOMX-1 1 39430U 13066Q 25260.28649972 .00001831 00000-0 28899-3 0 9999 2 39430 97.6721 112.8050 0130407 232.8779 126.0455 14.68004642629851 LO-74 1 39440U 13066AA 25260.11651968 .00003546 00000-0 35529-3 0 9993 2 39440 97.8552 204.0626 0060101 209.9890 149.7881 14.90681048636265 AO-73 1 39444U 13066AE 25259.88254159 .00008531 00000-0 61489-3 0 9993 2 39444 97.7926 222.3061 0043242 53.6996 306.8210 15.03648780638509 DTUSAT-2 1 40030U 14033W 25259.89948919 .00007905 00000-0 49582-3 0 9990 2 40030 98.0651 236.6622 0011009 85.9189 274.3297 15.09566524611371 EO-80 1 40032U 14033Y 25259.91455117 .00007328 00000-0 45899-3 0 9994 2 40032 98.0538 236.1945 0009565 38.0495 322.1406 15.09659821611358 LILACSAT-2 1 40908U 15049K 25260.22199639 .00011690 00000-0 28319-3 0 9999 2 40908 97.5033 283.1095 0009855 151.0996 209.0798 15.41201251553567 IO-86 1 40931U 15052B 25151.18580175 .00001241 00000-0 78118-4 0 9996 2 40931 6.0006 24.0987 0012733 338.8432 21.1169 14.78805930523159 Horyu-4 1 41340U 16012D 25260.09936962 .00030002 00000-0 68699-3 0 9997 2 41340 30.9948 180.6068 0005889 4.6806 355.3895 15.41532127528138 Lapan A3 1 41603U 16040E 25260.29286177 .00003774 00000-0 13019-3 0 9990 2 41603 97.1422 261.0512 0008743 273.9325 86.0917 15.30537783513036 CAS-2T 1 41847U 16066G 25260.21210209 .00001137 00000-0 17133-3 0 9995 2 41847 98.4128 333.7876 0344262 236.9022 119.8686 14.43719051465391 CAS-4B 1 42759U 17034B 25259.95651307 .00291059 00000-0 11750-2 0 9993 2 42759 43.0002 82.6120 0024003 277.8054 82.0094 15.84349689458231 CAS-4A 1 42761U 17034D 25259.92582928 .00263071 32702-4 92314-3 0 9992 2 42761 43.0029 78.1961 0024511 283.5760 76.2384 15.87955477458269 TechnoSat 1 42829U 17042E 25260.04084280 .00002993 00000-0 23005-3 0 9996 2 42829 97.4012 64.0807 0016156 310.8893 49.0932 15.02359835445658 AO-91 1 43017U 17073E 25260.09175370 .00007832 00000-0 38974-3 0 9994 2 43017 97.5097 128.3722 0167747 186.4718 173.4345 15.06327721424186 S-Net D 1 43186U 18014G 25260.21462757 .00005430 00000-0 31307-3 0 9994 2 43186 97.5501 162.1017 0007195 235.6630 124.3920 15.12777610417433 S-Net B 1 43187U 18014H 25260.15520400 .00005197 00000-0 29994-3 0 9997 2 43187 97.5507 162.0195 0007978 231.0666 128.9854 15.12754799417422 S-Net A 1 43188U 18014J 25259.68549629 .00006184 00000-0 35593-3 0 9997 2 43188 97.5514 161.7181 0007832 233.6889 126.3620 15.12778013417356 S-Net C 1 43189U 18014K 25259.69482103 .00005641 00000-0 32523-3 0 9999 2 43189 97.5529 161.7583 0009433 225.9112 134.1343 15.12746749415900 Ten-Koh 1 43677U 18084G 25260.27235062 .00002044 00000-0 16515-3 0 9991 2 43677 98.0803 76.4818 0005922 287.2556 72.8018 15.01022691375192 PO-101 1 43678U 18084H 25260.28102289 .00001475 00000-0 12779-3 0 9992 2 43678 98.1082 80.2773 0008295 321.5686 38.4944 14.98763317375310 QO-100 1 43700U 18090A 25260.23113830 .00000124 00000-0 00000-0 0 9995 2 43700 0.0146 231.1411 0001435 346.8679 247.4389 1.00272339 24949 MinXSS-2 1 43758U 18099A 25260.12449952 .00019264 00000-0 68723-3 0 9996 2 43758 97.4926 326.6350 0011975 159.9724 200.1988 15.28861718372165 AO-95 1 43770U 18099N 25260.11735323 .00010342 00000-0 49690-3 0 9999 2 43770 97.4820 317.1607 0009543 218.1328 141.9233 15.18981948371653 SNUSat 2 1 43782U 18099AA 25260.12528111 .00007248 00000-0 37998-3 0 9997 2 43782 97.4503 313.0872 0012434 161.8761 198.2918 15.16005712371571 SnugLite 1 43784U 18099AC 25260.12545960 .00009850 00000-0 46897-3 0 9999 2 43784 97.4317 312.8709 0004367 148.3778 211.7720 15.19339166371743 ITASat 1 1 43786U 18099AE 25260.11450256 .00006620 00000-0 36604-3 0 9990 2 43786 97.4473 312.2817 0013156 216.2937 143.7403 15.14138062371514 EAGLET 1 1 43790U 18099AJ 25260.05539589 .00003830 00000-0 24024-3 0 9998 2 43790 97.4668 311.8282 0011342 200.2968 159.7812 15.09851818371075 ESEO 1 43792U 18099AL 25260.01366714 .00002273 00000-0 17325-3 0 9990 2 43792 97.4366 303.6924 0012298 180.9191 179.2014 15.02950905370752 JO-97 1 43803U 18099AX 25260.13321722 .00012510 00000-0 53314-3 0 9999 2 43803 97.4566 318.4089 0008275 148.5823 211.5909 15.23060937371917 Suomi 100 1 43804U 18099AY 25260.12120731 .00011116 00000-0 51445-3 0 9990 2 43804 97.4633 317.3856 0012824 155.6109 204.5735 15.20225297371811 ISAT 1 43879U 18111D 25259.73196370 .00026507 00000-0 80767-3 0 9993 2 43879 97.5870 176.5320 0007249 183.6994 176.4196 15.33926749368870 UWE-4 1 43880U 18111E 25259.73827271 .00018039 00000-0 64346-3 0 9992 2 43880 97.5816 174.2597 0009563 208.9776 151.0934 15.28905852368766 Sparrow 1 43881U 18111F 25259.69176591 .00027911 00000-0 81036-3 0 9994 2 43881 97.6036 179.7832 0003751 221.3874 138.7086 15.35460544368970 Prox-1 1 44339U 19036A 25260.00941683 .00012640 00000-0 15234-2 0 9998 2 44339 23.9956 127.7436 0006773 123.9354 236.1788 14.81986978332777 Taurus 1 1 44530U 19059C 25260.35076341 .00006069 00000-0 10899-2 0 9994 2 44530 98.6170 44.6175 0009571 88.9059 271.3240 14.67049697318562 Duchifat 3 1 44854U 19089C 25259.89140025 .00085621 00000-0 11312-2 0 9996 2 44854 36.9375 79.5308 0006801 10.4750 349.6151 15.57154185318445 TO-108 1 44881U 19093C 25260.30545491 .00000834 00000-0 10200-3 0 9994 2 44881 97.7851 333.8442 0012310 263.3281 96.6533 14.85792614310882 FloripaSat 1 1 44885U 19093G 25260.28002249 .00004834 00000-0 39812-3 0 9998 2 44885 97.8167 348.1385 0008452 230.4099 129.6378 14.99531121311688 RS-44 1 44909U 19096E 25259.76574464 .00000008 00000-0 -18084-4 0 9991 2 44909 82.5252 161.3987 0218511 63.7471 298.5907 12.79743502267378 UPMSat 2 1 46276U 20061E 25260.17777281 .00234248 22280-4 73605-3 0 9994 2 46276 97.2289 339.0993 0003539 220.2321 139.8692 15.91388302281168 SALSAT 1 46495U 20068K 25260.26083134 .00006744 00000-0 28005-3 0 9995 2 46495 97.8708 243.0431 0011455 165.2658 194.8914 15.24135376273707 TUBIN 1 48900U 21059X 25260.28416343 .00067946 00000-0 54651-3 0 9990 2 48900 97.6770 78.3396 0002984 216.8977 143.2079 15.70744677235631 LEDSAT 1 49069U 21073D 25260.19819905 .00218223 00000-0 10381-2 0 9991 2 49069 97.3768 347.0672 0001624 75.0118 285.1330 15.82307377227055 CUTE 1 49263U 21088D 25259.70723602 .00023375 00000-0 39350-3 0 9996 2 49263 97.4425 339.1136 0005701 216.1741 143.9126 15.51705182219775 TeikyoSat 4 1 49396U 21102B 25260.02869266 .00001934 00000-0 12929-3 0 9994 2 49396 97.4030 294.8511 0013368 146.2384 213.9699 15.08039931211535 Z-Sat 1 49399U 21102E 25260.23469768 .00003999 00000-0 21542-3 0 9997 2 49399 97.3726 298.7823 0019464 116.4203 243.9030 15.15207994212065 KOSEN 1 1 49402U 21102H 25260.08494407 .00007383 00000-0 32904-3 0 9998 2 49402 97.3620 302.8302 0017189 91.5857 268.7348 15.21581276212413 HO-113 1 50466U 21131B 25260.34196392 .00000453 00000-0 15487-3 0 9991 2 50466 98.5082 349.2015 0004159 181.5434 178.5742 14.40925005195812 SNUGLITE 2 1 52899U 22065F 25259.98103635 .00001153 00000-0 23192-3 0 9996 2 52899 98.1830 41.0769 0008091 154.1747 205.9861 14.63446148171021 UmKA 1 (RS40S) 1 57172U 23091G 25260.21831652 .00005227 00000-0 27161-3 0 9996 2 57172 97.5488 315.0962 0013577 356.5865 3.5272 15.16449187122574 CubeBel-2 (EU11S) 1 57175U 23091K 25260.23063003 .00008765 00000-0 39630-3 0 9992 2 57175 97.5485 316.9066 0011217 2.9773 357.1527 15.21119384122691 ENSO 1 58470U 23185J 25260.20594682 .00127523 00000-0 10218-2 0 9998 2 58470 97.3623 339.3533 0003244 93.7205 266.4428 15.70644552100589 SONATE-2 1 59112U 24043Q 25260.15250516 .00021351 00000-0 55042-3 0 9992 2 59112 97.5248 33.6218 0011001 117.9244 242.3117 15.39152937 85636 MO-122 1 60209U 24125G 25260.00758728 .00021679 00000-0 54684-3 0 9998 2 60209 97.2677 110.6884 0018458 135.7374 224.5352 15.39695480 67232 GRBBeta 1 60237U 24128C 25260.12949459 .00004762 00000-0 35096-3 0 9998 2 60237 61.9901 92.2538 0056796 79.0266 281.7208 15.03482257 65161 Curium One 1 60242U 24128H 25260.11679277 .00008392 00000-0 55751-3 0 9994 2 60242 61.9798 88.9863 0056580 75.8289 284.9081 15.06591892 65224 ROBUSTA-3A 1 60243U 24128J 25260.08589431 .00007465 00000-0 50522-3 0 9994 2 60243 61.9871 90.2732 0056160 73.2874 287.4371 15.06051657 65202 CatSat 1 60246U 24125J 25259.80828228 .00023300 00000-0 70459-3 0 9999 2 60246 97.2492 108.5283 0041404 100.0635 260.5283 15.33347454 65172 HYPERVIEW-1G (RS66S) 1 61772U 24199AP 25260.26185568 .00022056 00000-0 55798-3 0 9996 2 61772 97.3368 129.1013 0012113 184.0691 176.0459 15.39707995 92272 AO-123 1 61781U 24199AY 25260.25476187 .00006792 00000-0 23813-3 0 9997 2 61781 97.3391 126.7418 0014680 197.4208 162.6531 15.29675812 92119 ZIMSAT 2 1 61783U 24199BA 25260.19792312 .00046966 00000-0 86726-3 0 9992 2 61783 97.3322 130.6388 0011370 174.0416 186.0972 15.48881086 95520 HADES-R (SO-124) 1 62690U 25009CK 25258.75319976 .00064710 00000-0 17851-2 0 9990 2 62690 97.4018 339.6115 0002933 129.6914 230.4589 15.36859994 37180 HYDRA-T 1 62692U 25009CM 25259.69289883 .00059839 00000-0 16211-2 0 9994 2 62692 97.4017 340.6436 0002563 122.4044 237.7449 15.37447818 37334 JINJUSat 1B 1 63210U 25052A 25260.15811917 .00011007 00000-0 47286-3 0 9993 2 63210 97.4269 153.0828 0003762 10.5734 349.5581 15.22846014 28396 NUSHSAT 1 1 63211U 25052B 25259.14550899 .00017271 00000-0 72955-3 0 9990 2 63211 97.4253 152.1187 0004126 18.5309 341.6077 15.23310713 28249 TEVEL2-4 1 63213U 25052D 25259.64133838 .00015224 00000-0 65119-3 0 9997 2 63213 97.4172 152.3263 0004063 35.7177 324.4331 15.22911566 28314 TEVEL2-5 1 63214U 25052E 25260.16936295 .00012205 00000-0 52324-3 0 9995 2 63214 97.4175 152.8429 0003996 35.4841 324.6661 15.22887649 28396 TEVEL2-6 1 63215U 25052F 25259.64845079 .00015385 00000-0 65956-3 0 9993 2 63215 97.4173 152.3204 0004140 36.6460 323.5059 15.22833551 28317 TEVEL2-1 1 63217U 25052H 25260.13472405 .00013322 00000-0 57576-3 0 9998 2 63217 97.4147 152.6792 0004667 43.2087 316.9515 15.22587985 28385 TEVEL2-3 1 63218U 25052J 25259.60901436 .00014492 00000-0 62605-3 0 9998 2 63218 97.4149 152.1625 0004793 45.1029 315.0596 15.22584189 28309 TEVEL2-2 1 63219U 25052K 25260.13543887 .00013289 00000-0 57441-3 0 9996 2 63219 97.4148 152.6796 0004685 43.1540 317.0063 15.22584836 28387 TEVEL2-9 1 63237U 25052AD 25259.69037524 .00013428 00000-0 60266-3 0 9995 2 63237 97.4213 152.0567 0009232 42.3670 317.8278 15.21269209 28297 TEVEL2-7 1 63238U 25052AE 25259.69745222 .00013502 00000-0 60751-3 0 9999 2 63238 97.4215 152.0516 0009318 42.3055 317.8898 15.21179316 28293 TEVEL2-8 1 63239U 25052AF 25259.63570834 .00014009 00000-0 63074-3 0 9993 2 63239 97.4215 151.9793 0009318 42.6017 317.5940 15.21148214 28287 HYDRA-W 1 63490U 25052BL 25259.65117468 .00039063 00000-0 13908-2 0 9991 2 63490 97.4157 153.0459 0012054 37.8907 322.3179 15.28774011 28362 HADES-ICM (SO-125) 1 63492U 25052BN 25259.44179787 .00039158 00000-0 14292-2 0 9994 2 63492 97.4163 152.7298 0012499 41.2990 318.9193 15.27952270 28329